Tracking 29892 objects as of 21-Nov-2024
HD Live streaming from Space Station
objects crossing your sky now

STARLINK-11327

Track STARLINK-11327 now!
10-day predictions
STARLINK-11327 is classified as:


NORAD ID: 61695
Int'l Code: 2024-195J
Perigee: 337.4 km
Apogee: 338.3 km
Inclination: 53.2 °
Period: 91.1 minutes
Semi major axis: 6708 km
RCS: Unknown
Launch date: October 30, 2024
Source: United States (US)
Launch site: AIR FORCE WESTERN TEST RANGE (AFWTR)
Your satellite tracking list
Your tracking list is empty




NASA's NSSDC Master Catalog

Two Line Element Set (TLE):
1 61695U 24195J   24326.16667824 -.00927918  00000-0 -54700-2 0  9991
2 61695  53.1610 201.5006 0000656  61.9755 126.0167 15.79900408  4649
Source of the keplerian elements: AFSPC